AAL3278 KDFW-KTYS

Flight info

Callsign AAL3278
Flight time 1h 27m
Altitude 37000
Route TRYTN4 LOOSE MEM TAZZA
Aircraft A319/M-SDE3FGHIRWY/LB1

Departure

Time 2026-05-09 13:47
Airport Dallas Fort Worth International Airport (KDFW)

Arrival

Time 2026-05-09 15:14
Airport McGhee Tyson Airport (KTYS)
Time Latitude Longitude Altitude Speed Heading
2026-05-09 13:29 32.90614 -97.03539 616 ft 0 kts 248°
2026-05-09 13:37 32.90619 -97.03525 618 ft 3 kts 248°
2026-05-09 13:38 32.90626 -97.03504 630 ft 3 kts 248°
2026-05-09 13:38 32.90633 -97.03483 615 ft 3 kts 248°
2026-05-09 13:38 32.90640 -97.03462 615 ft 3 kts 248°
2026-05-09 13:38 32.90647 -97.03442 615 ft 3 kts 248°
2026-05-09 13:39 32.90654 -97.03422 621 ft 3 kts 248°
2026-05-09 13:39 32.90655 -97.03417 615 ft 0 kts 248°
2026-05-09 13:39 32.90655 -97.03418 615 ft 1 kts 248°
2026-05-09 13:40 32.90648 -97.03427 615 ft 4 kts 225°
2026-05-09 13:40 32.90611 -97.03420 615 ft 8 kts 140°
2026-05-09 13:40 32.90558 -97.03359 615 ft 13 kts 140°
2026-05-09 13:40 32.90466 -97.03308 615 ft 16 kts 169°
2026-05-09 13:41 32.90354 -97.03308 615 ft 17 kts 182°
2026-05-09 13:41 32.90235 -97.03313 618 ft 18 kts 181°
2026-05-09 13:41 32.90110 -97.03314 618 ft 18 kts 180°
2026-05-09 13:41 32.89978 -97.03314 626 ft 19 kts 180°
2026-05-09 13:42 32.89841 -97.03315 620 ft 20 kts 180°
2026-05-09 13:42 32.89699 -97.03315 628 ft 21 kts 180°
2026-05-09 13:42 32.89552 -97.03316 623 ft 21 kts 180°
2026-05-09 13:42 32.89400 -97.03316 616 ft 22 kts 180°
2026-05-09 13:43 32.89244 -97.03317 621 ft 23 kts 180°
2026-05-09 13:43 32.89085 -97.03317 616 ft 23 kts 180°
2026-05-09 13:43 32.88923 -97.03318 621 ft 24 kts 180°
2026-05-09 13:43 32.88757 -97.03319 619 ft 24 kts 180°
2026-05-09 13:44 32.88589 -97.03320 620 ft 24 kts 180°
2026-05-09 13:44 32.88417 -97.03321 625 ft 25 kts 180°
2026-05-09 13:44 32.88246 -97.03313 625 ft 23 kts 174°
2026-05-09 13:44 32.88083 -97.03294 616 ft 24 kts 174°
2026-05-09 13:45 32.87943 -97.03283 621 ft 16 kts 176°
2026-05-09 13:45 32.87899 -97.03196 622 ft 15 kts 89°
2026-05-09 13:45 32.87899 -97.03073 627 ft 15 kts 90°
2026-05-09 13:45 32.87940 -97.03008 620 ft 9 kts 360°
2026-05-09 13:46 32.88009 -97.03008 624 ft 14 kts
2026-05-09 13:46 32.88300 -97.03006 627 ft 78 kts
2026-05-09 13:46 32.89055 -97.03003 626 ft 136 kts
2026-05-09 13:46 32.90161 -97.02997 690 ft 175 kts
2026-05-09 13:47 32.91384 -97.02982 1331 ft 177 kts 359°
2026-05-09 13:47 32.92622 -97.02963 2015 ft 179 kts 359°
2026-05-09 13:47 32.93891 -97.02941 2568 ft 189 kts 359°
2026-05-09 13:47 32.95277 -97.02908 2936 ft 212 kts 360°
2026-05-09 13:48 32.96842 -97.02858 3329 ft 238 kts
2026-05-09 13:48 32.98580 -97.02785 3842 ft 262 kts
2026-05-09 13:48 33.00451 -97.02695 4657 ft 272 kts
2026-05-09 13:48 33.02349 -97.02607 5642 ft 274 kts
2026-05-09 13:49 33.04259 -97.02510 6622 ft 276 kts
2026-05-09 13:49 33.06106 -97.01825 7446 ft 285 kts 30°
2026-05-09 13:49 33.07510 -97.00143 8301 ft 292 kts 58°
2026-05-09 13:49 33.08109 -96.97822 9121 ft 299 kts 85°
2026-05-09 13:50 33.07996 -96.95343 9993 ft 301 kts 96°
2026-05-09 13:50 33.07781 -96.92862 10584 ft 314 kts 94°
2026-05-09 13:50 33.07568 -96.90136 10864 ft 338 kts 94°
2026-05-09 13:50 33.07320 -96.87252 11102 ft 361 kts 95°
2026-05-09 13:51 33.06986 -96.84228 11283 ft 385 kts 99°
2026-05-09 13:51 33.06245 -96.81060 11414 ft 409 kts 110°
2026-05-09 13:51 33.05134 -96.77871 11751 ft 422 kts 112°
2026-05-09 13:51 33.03993 -96.74628 12330 ft 428 kts 111°
2026-05-09 13:52 33.02839 -96.71329 12916 ft 433 kts 111°
2026-05-09 13:52 33.01687 -96.68007 13542 ft 436 kts 111°
2026-05-09 13:52 33.00531 -96.64650 14143 ft 439 kts 111°
2026-05-09 13:52 32.99371 -96.61268 14701 ft 443 kts 111°
2026-05-09 13:53 32.98200 -96.57855 15248 ft 446 kts 112°
2026-05-09 13:53 32.97020 -96.54418 15759 ft 450 kts 112°
2026-05-09 13:53 32.95826 -96.50954 16265 ft 454 kts 112°
2026-05-09 13:53 32.94620 -96.47460 16805 ft 458 kts 112°
2026-05-09 13:54 32.93403 -96.43950 17378 ft 461 kts 112°
2026-05-09 13:54 32.92214 -96.40388 17964 ft 465 kts 109°
2026-05-09 13:54 32.91437 -96.36647 18516 ft 469 kts 98°
2026-05-09 13:54 32.91200 -96.32763 19003 ft 472 kts 88°
2026-05-09 13:55 32.91529 -96.28867 19445 ft 475 kts 78°
2026-05-09 13:55 32.92413 -96.25078 19831 ft 477 kts 68°
2026-05-09 13:55 32.93620 -96.21386 20185 ft 480 kts 67°
2026-05-09 13:55 32.94832 -96.17672 20539 ft 483 kts 68°
2026-05-09 13:56 32.96045 -96.13933 20891 ft 486 kts 68°
2026-05-09 13:56 32.97261 -96.10163 21230 ft 489 kts 68°
2026-05-09 13:56 32.98476 -96.06375 21566 ft 491 kts 68°
2026-05-09 13:56 32.99697 -96.02563 21880 ft 494 kts 68°
2026-05-09 13:57 33.00925 -95.98733 22192 ft 496 kts 68°
2026-05-09 13:57 33.02161 -95.94887 22471 ft 500 kts 68°
2026-05-09 13:57 33.03410 -95.91003 22718 ft 504 kts 68°
2026-05-09 13:57 33.04667 -95.87089 23007 ft 507 kts 68°
2026-05-09 13:58 33.05928 -95.83164 23299 ft 509 kts 68°
2026-05-09 13:58 33.07201 -95.79207 23629 ft 510 kts 68°
2026-05-09 13:58 33.08468 -95.75268 24054 ft 509 kts 68°
2026-05-09 13:58 33.09735 -95.71324 24458 ft 509 kts 68°
2026-05-09 13:59 33.11001 -95.67378 24862 ft 509 kts 68°
2026-05-09 13:59 33.12260 -95.63436 25265 ft 509 kts 68°
2026-05-09 13:59 33.13513 -95.59496 25685 ft 508 kts 68°
2026-05-09 13:59 33.14768 -95.55555 26103 ft 508 kts 68°
2026-05-09 14:00 33.16022 -95.51619 26515 ft 507 kts 68°
2026-05-09 14:00 33.16429 -95.50343 26646 ft 508 kts 68°
2026-05-09 14:00 33.18528 -95.43751 27339 ft 507 kts 68°
2026-05-09 14:00 33.19761 -95.39868 27746 ft 507 kts 68°
2026-05-09 14:01 33.21010 -95.35928 28144 ft 507 kts 68°
2026-05-09 14:01 33.22253 -95.31992 28549 ft 507 kts 68°
2026-05-09 14:01 33.23497 -95.28053 28959 ft 507 kts 68°
2026-05-09 14:01 33.24742 -95.24113 29352 ft 506 kts 68°
2026-05-09 14:02 33.25984 -95.20179 29757 ft 506 kts 68°
2026-05-09 14:02 33.27222 -95.16249 30144 ft 506 kts 68°
2026-05-09 14:02 33.28461 -95.12307 30544 ft 506 kts 68°
2026-05-09 14:02 33.29698 -95.08370 30889 ft 507 kts 68°
2026-05-09 14:03 33.30936 -95.04424 31202 ft 508 kts 69°
2026-05-09 14:03 33.32180 -95.00453 31498 ft 511 kts 69°
2026-05-09 14:03 33.33424 -94.96475 31820 ft 512 kts 69°
2026-05-09 14:03 33.34671 -94.92480 32145 ft 513 kts 69°
2026-05-09 14:04 33.35918 -94.88483 32453 ft 515 kts 69°
2026-05-09 14:04 33.37171 -94.84463 32761 ft 516 kts 69°
2026-05-09 14:04 33.38426 -94.80434 33051 ft 518 kts 69°
2026-05-09 14:04 33.39687 -94.76390 33352 ft 519 kts 69°
2026-05-09 14:05 33.40950 -94.72328 33645 ft 521 kts 69°
2026-05-09 14:05 33.42214 -94.68257 33923 ft 523 kts 69°
2026-05-09 14:05 33.43479 -94.64170 34227 ft 525 kts 69°
2026-05-09 14:05 33.44747 -94.60063 34516 ft 526 kts 69°
2026-05-09 14:06 33.46016 -94.55954 34826 ft 527 kts 69°
2026-05-09 14:06 33.47288 -94.51831 35134 ft 528 kts 69°
2026-05-09 14:06 33.48559 -94.47707 35457 ft 528 kts 69°
2026-05-09 14:06 33.49833 -94.43567 35741 ft 530 kts 69°
2026-05-09 14:07 33.51106 -94.39432 36033 ft 529 kts 69°
2026-05-09 14:07 33.52377 -94.35282 36266 ft 529 kts 69°
2026-05-09 14:07 33.53644 -94.31137 36450 ft 531 kts 69°
2026-05-09 14:07 33.54909 -94.26970 36656 ft 533 kts 69°
2026-05-09 14:08 33.56176 -94.22790 36870 ft 534 kts 69°
2026-05-09 14:08 33.57436 -94.18593 36950 ft 537 kts 70°
2026-05-09 14:08 33.59962 -94.10094 36953 ft 542 kts 69°
2026-05-09 14:09 33.62481 -94.01586 36953 ft 540 kts 70°
2026-05-09 14:09 33.64990 -93.93112 36959 ft 538 kts 69°
2026-05-09 14:10 33.68746 -93.80402 36963 ft 538 kts 70°
2026-05-09 14:11 33.71224 -93.71983 36960 ft 539 kts 70°
2026-05-09 14:11 33.73715 -93.63461 36917 ft 542 kts 70°
2026-05-09 14:12 33.76218 -93.54884 36918 ft 546 kts 70°
2026-05-09 14:12 33.78734 -93.46263 36919 ft 548 kts 70°
2026-05-09 14:13 33.81258 -93.37606 36923 ft 550 kts 70°
2026-05-09 14:15 33.91790 -93.02872 36962 ft 555 kts 64°
2026-05-09 14:15 33.94991 -92.94398 36961 ft 557 kts 64°
2026-05-09 14:16 33.98189 -92.85889 36962 ft 558 kts 64°
2026-05-09 14:16 34.01387 -92.77370 36962 ft 559 kts 64°
2026-05-09 14:17 34.04582 -92.68835 36984 ft 558 kts 64°
2026-05-09 14:17 34.07761 -92.60312 36982 ft 557 kts 64°
2026-05-09 14:18 34.10933 -92.51780 36976 ft 558 kts 64°
2026-05-09 14:18 34.14080 -92.43283 36973 ft 559 kts 65°
2026-05-09 14:19 34.17275 -92.34655 36968 ft 559 kts 65°
2026-05-09 14:19 34.20454 -92.26064 36965 ft 561 kts 65°
2026-05-09 14:20 34.23626 -92.17453 36966 ft 562 kts 65°
2026-05-09 14:20 34.26774 -92.08867 36965 ft 563 kts 65°
2026-05-09 14:21 34.31531 -91.95885 36968 ft 563 kts 65°
2026-05-09 14:21 34.34696 -91.87216 36969 ft 564 kts 65°
2026-05-09 14:22 34.37845 -91.78533 36972 ft 563 kts 65°
2026-05-09 14:22 34.40998 -91.69841 36981 ft 563 kts 65°
2026-05-09 14:23 34.44151 -91.61161 36981 ft 563 kts 65°
2026-05-09 14:23 34.47289 -91.52488 36981 ft 562 kts 65°
2026-05-09 14:24 34.50409 -91.43813 36977 ft 561 kts 65°
2026-05-09 14:24 34.53525 -91.35131 36979 ft 561 kts 65°
2026-05-09 14:25 34.56627 -91.26451 36977 ft 560 kts 65°
2026-05-09 14:25 34.59726 -91.17776 36980 ft 560 kts 65°
2026-05-09 14:26 34.62819 -91.09110 36980 ft 560 kts 65°
2026-05-09 14:26 34.65902 -91.00423 36971 ft 560 kts 65°
2026-05-09 14:27 34.68976 -90.91726 36967 ft 560 kts 65°
2026-05-09 14:27 34.72048 -90.83011 36969 ft 561 kts 65°
2026-05-09 14:28 34.75118 -90.74300 36959 ft 561 kts 65°
2026-05-09 14:28 34.78187 -90.65581 36954 ft 561 kts 65°
2026-05-09 14:29 34.80727 -90.58327 36949 ft 561 kts 65°
2026-05-09 14:29 34.83781 -90.49583 36945 ft 561 kts 65°
2026-05-09 14:30 34.86825 -90.40836 36945 ft 561 kts 65°
2026-05-09 14:30 34.89868 -90.32081 36946 ft 562 kts 65°
2026-05-09 14:31 34.92901 -90.23314 36948 ft 562 kts 65°
2026-05-09 14:31 34.95931 -90.14538 36955 ft 562 kts 65°
2026-05-09 14:32 34.98958 -90.05756 36953 ft 562 kts 65°
2026-05-09 14:32 35.01729 -89.96840 36951 ft 564 kts 75°
2026-05-09 14:33 35.03381 -89.87496 36937 ft 564 kts 78°
2026-05-09 14:33 35.04998 -89.78102 36927 ft 566 kts 78°
2026-05-09 14:34 35.06613 -89.68708 36928 ft 567 kts 78°
2026-05-09 14:34 35.08218 -89.59278 36930 ft 567 kts 78°
2026-05-09 14:35 35.09805 -89.49902 36931 ft 568 kts 78°
2026-05-09 14:35 35.11396 -89.40452 36931 ft 568 kts 78°
2026-05-09 14:36 35.12985 -89.30983 36945 ft 570 kts 78°
2026-05-09 14:36 35.14568 -89.21506 36943 ft 570 kts 78°
2026-05-09 14:37 35.16146 -89.11999 36943 ft 571 kts 78°
2026-05-09 14:37 35.17716 -89.02483 36943 ft 571 kts 78°
2026-05-09 14:38 35.19281 -88.92959 36938 ft 572 kts 78°
2026-05-09 14:38 35.20845 -88.83426 36941 ft 572 kts 78°
2026-05-09 14:39 35.22397 -88.73877 36941 ft 572 kts 78°
2026-05-09 14:39 35.23946 -88.64325 36943 ft 573 kts 78°
2026-05-09 14:40 35.25483 -88.54761 36946 ft 573 kts 78°
2026-05-09 14:40 35.27011 -88.45192 36944 ft 573 kts 78°
2026-05-09 14:41 35.28538 -88.35606 36946 ft 574 kts 78°
2026-05-09 14:41 35.30058 -88.26021 36947 ft 574 kts 78°
2026-05-09 14:42 35.31557 -88.16485 36944 ft 574 kts 78°
2026-05-09 14:42 35.33065 -88.06896 36943 ft 574 kts 78°
2026-05-09 14:43 35.34567 -87.97306 36942 ft 574 kts 78°
2026-05-09 14:43 35.36053 -87.87686 36951 ft 576 kts 78°
2026-05-09 14:44 35.37535 -87.78045 36953 ft 576 kts 78°
2026-05-09 14:44 35.39014 -87.68383 36952 ft 576 kts 78°
2026-05-09 14:45 35.40487 -87.58717 36952 ft 577 kts 78°
2026-05-09 14:45 35.41961 -87.49034 36952 ft 578 kts 78°
2026-05-09 14:46 35.43415 -87.39356 36952 ft 578 kts 78°
2026-05-09 14:46 35.44865 -87.29659 36944 ft 578 kts 78°
2026-05-09 14:47 35.46310 -87.19973 36936 ft 578 kts 78°
2026-05-09 14:47 35.47749 -87.10271 36936 ft 578 kts 78°
2026-05-09 14:48 35.49185 -87.00550 36945 ft 579 kts 78°
2026-05-09 14:48 35.50615 -86.90817 36954 ft 580 kts 78°
2026-05-09 14:49 35.52030 -86.81061 36959 ft 581 kts 78°
2026-05-09 14:49 35.53440 -86.71296 36961 ft 581 kts 78°
2026-05-09 14:50 35.54859 -86.61524 36961 ft 581 kts 78°
2026-05-09 14:50 35.56251 -86.51816 36953 ft 581 kts 78°
2026-05-09 14:51 35.57639 -86.42031 36953 ft 582 kts 78°
2026-05-09 14:51 35.59021 -86.32239 36953 ft 582 kts 78°
2026-05-09 14:52 35.60398 -86.22446 36954 ft 582 kts 78°
2026-05-09 14:52 35.61772 -86.12643 36957 ft 582 kts 78°
2026-05-09 14:53 35.63128 -86.02833 36955 ft 582 kts 79°
2026-05-09 14:53 35.64476 -85.93020 36956 ft 583 kts 78°
2026-05-09 14:54 35.65823 -85.83194 36956 ft 583 kts 78°
2026-05-09 14:54 35.67164 -85.73356 36960 ft 583 kts 78°
2026-05-09 14:55 35.68495 -85.63521 36961 ft 583 kts 79°
2026-05-09 14:55 35.69819 -85.53686 36877 ft 585 kts 79°
2026-05-09 14:56 35.70480 -85.48750 36498 ft 581 kts 79°
2026-05-09 14:56 35.71132 -85.43873 36116 ft 576 kts 79°
2026-05-09 14:56 35.71781 -85.38989 35201 ft 581 kts 79°
2026-05-09 14:56 35.72428 -85.34083 34470 ft 580 kts 79°
2026-05-09 14:57 35.73078 -85.29174 33628 ft 582 kts 79°
2026-05-09 14:57 35.73733 -85.24243 32750 ft 584 kts 79°
2026-05-09 14:57 35.74382 -85.19306 31908 ft 585 kts 79°
2026-05-09 14:57 35.75028 -85.14366 31085 ft 584 kts 79°
2026-05-09 14:58 35.75670 -85.09446 30226 ft 582 kts 79°
2026-05-09 14:58 35.76309 -85.04530 29345 ft 580 kts 79°
2026-05-09 14:58 35.76941 -84.99634 28382 ft 579 kts 79°
2026-05-09 14:58 35.77567 -84.94747 27432 ft 576 kts 79°
2026-05-09 14:59 35.78191 -84.89890 26448 ft 573 kts 79°
2026-05-09 14:59 35.78812 -84.85052 25407 ft 570 kts 79°
2026-05-09 14:59 35.79425 -84.80247 24337 ft 566 kts 79°
2026-05-09 14:59 35.80028 -84.75506 23604 ft 555 kts 78°
2026-05-09 15:00 35.80629 -84.70880 23084 ft 539 kts 78°
2026-05-09 15:00 35.81228 -84.66391 22045 ft 525 kts 78°
2026-05-09 15:00 35.81828 -84.61995 20850 ft 516 kts 78°
2026-05-09 15:00 35.82432 -84.57679 19663 ft 507 kts 78°
2026-05-09 15:01 35.83672 -84.49277 17377 ft 491 kts 78°
2026-05-09 15:01 35.84308 -84.45176 16263 ft 483 kts 78°
2026-05-09 15:01 35.84945 -84.41143 15208 ft 475 kts 78°
2026-05-09 15:02 35.85579 -84.37185 14186 ft 467 kts 78°
2026-05-09 15:02 35.86215 -84.33292 13195 ft 460 kts 78°
2026-05-09 15:02 35.86735 -84.29439 12338 ft 449 kts 83°
2026-05-09 15:02 35.87073 -84.25736 12194 ft 420 kts 84°
2026-05-09 15:03 35.87394 -84.22259 12006 ft 396 kts 84°
2026-05-09 15:03 35.87706 -84.18968 11714 ft 378 kts 84°
2026-05-09 15:03 35.88013 -84.15812 11422 ft 364 kts 83°
2026-05-09 15:03 35.88316 -84.12769 11131 ft 351 kts 83°
2026-05-09 15:04 35.88614 -84.09835 10849 ft 340 kts 83°
2026-05-09 15:04 35.88907 -84.06992 10588 ft 328 kts 83°
2026-05-09 15:06 35.90804 -83.88197 6877 ft 301 kts 84°
2026-05-09 15:06 35.91045 -83.85661 6417 ft 294 kts 84°
2026-05-09 15:06 35.91265 -83.83184 5924 ft 288 kts 84°
2026-05-09 15:06 35.91468 -83.80740 5401 ft 284 kts 85°
2026-05-09 15:07 35.91660 -83.78332 4859 ft 280 kts 85°
2026-05-09 15:07 35.91846 -83.75957 4325 ft 276 kts 85°
2026-05-09 15:07 35.92240 -83.73684 3880 ft 267 kts 64°
2026-05-09 15:07 35.93385 -83.72013 3656 ft 249 kts 31°
2026-05-09 15:08 35.94963 -83.71458 3666 ft 231 kts 356°
2026-05-09 15:08 35.97621 -83.73417 3567 ft 228 kts 306°
2026-05-09 15:08 35.98280 -83.75114 3488 ft 214 kts 281°
2026-05-09 15:09 35.98309 -83.76881 3448 ft 204 kts 258°
2026-05-09 15:10 35.91809 -83.85974 3457 ft 199 kts 226°
2026-05-09 15:11 35.90829 -83.87177 3456 ft 199 kts 225°
2026-05-09 15:11 35.89848 -83.88371 3260 ft 199 kts 225°
2026-05-09 15:11 35.88873 -83.89563 3020 ft 195 kts 225°
2026-05-09 15:11 35.87911 -83.90744 2682 ft 193 kts 226°
2026-05-09 15:12 35.86981 -83.91880 2421 ft 182 kts 226°
2026-05-09 15:12 35.86118 -83.92939 2209 ft 166 kts 226°
2026-05-09 15:12 35.85359 -83.93860 2033 ft 144 kts 226°
2026-05-09 15:12 35.84676 -83.94691 1779 ft 133 kts 228°
2026-05-09 15:13 35.84020 -83.95502 1583 ft 134 kts 227°
2026-05-09 15:13 35.83371 -83.96300 1436 ft 130 kts 227°
2026-05-09 15:13 35.82741 -83.97070 1279 ft 126 kts 227°
2026-05-09 15:13 35.82116 -83.97827 1108 ft 127 kts 226°
2026-05-09 15:14 35.81494 -83.98585 985 ft 120 kts 227°
2026-05-09 15:14 35.81018 -83.99168 979 ft 72 kts 225°
2026-05-09 15:14 35.80786 -83.99449 979 ft 22 kts 224°
2026-05-09 15:14 35.80693 -83.99538 970 ft 14 kts 184°
2026-05-09 15:15 35.80642 -83.99453 981 ft 13 kts 110°
2026-05-09 15:15 35.80624 -83.99386 973 ft 11 kts 92°
2026-05-09 15:15 35.80691 -83.99287 980 ft 13 kts 44°
2026-05-09 15:15 35.80713 -83.99221 976 ft 6 kts 136°
2026-05-09 15:16 35.80674 -83.99182 974 ft 7 kts 136°
2026-05-09 15:16 35.80665 -83.99171 979 ft 0 kts 138°